Regional Weather Roundup
Issued by NWS Charleston, WV

Home | Current Version | Previous Version | Graphics & Text | Print | Product List | Glossary On
Versions: 1 2 3 4 5 6 7 8 9 10 11 12 13 14 15 16 17 18 19 20 21 22 23 24 25 26 27 28
000
ASUS41 KRLX 291010
RWRRLX
West Virginia Regional Weather Roundup
National Weather Service Charleston WV
600 AM EDT WED OCT 29 2014

Note: "fair" indicates few or no clouds below 12,000 feet with no
significant weather and/or obstructions to visibility.

WVZ003-291100-
Northern Panhandle of West Virginia

CITY           SKY/WX    TMP DP  RH WIND       PRES   REMARKS
WHEELING       MOCLDY    51  45  79 SW9       30.00S
$$

WVZ009-291100-
Northwest West Virginia

CITY           SKY/WX    TMP DP  RH WIND       PRES   REMARKS
PARKERSBURG    CLOUDY    52  47  83 SW6       30.06R
$$

WVZ006-291100-
Western West Virginia

CITY           SKY/WX    TMP DP  RH WIND       PRES   REMARKS
HUNTINGTON     CLOUDY    50  49  96 S5        30.07R
$$

WVZ015-291100-
West Central West Virginia

CITY           SKY/WX    TMP DP  RH WIND       PRES   REMARKS
CHARLESTON     LGT RAIN  51  49  92 S5        30.06F
$$

WVZ022-031-291100-
North Central West Virginia

CITY           SKY/WX    TMP DP  RH WIND       PRES   REMARKS
CLARKSBURG     LGT RAIN  50  49  96 SW7       30.03S
MORGANTOWN     CLOUDY    53  49  86 S3        30.02F
$$

WVZ025-035-042-045-291100-
Southern West Virginia

CITY           SKY/WX    TMP DP  RH WIND       PRES   REMARKS
BECKLEY        RAIN      48  45  89 NW7       30.05F
LOGAN          LGT RAIN  48  48 100 CALM      30.08S
BLUEFIELD      LGT RAIN  54  50  86 W9        30.05S
LEWISBURG      CLOUDY    56  48  75 W3        30.02S
$$

WVZ047-291100-
Northern Mountains of West Virginia

CITY           SKY/WX    TMP DP  RH WIND       PRES   REMARKS
ELKINS         LGT RAIN  49  49 100 CALM      30.05S
$$

WVZ052-291100-
Eastern Panhandle of West Virginia

CITY           SKY/WX    TMP DP  RH WIND       PRES   REMARKS
MARTINSBURG    CLOUDY    64  47  53 NW7       29.93R
PETERSBURG     LGT RAIN  60  47  61 NW6       29.99R
$$



USA.gov is the U.S. government's official web portal to all federal, state and local government web resources and services.